Home   Weather   Meschede   Past weeks

Flag for Germany Past Weather in Meschede, North Rhine-Westphalia, Germany — Yesterday and Last 2 Weeks

Now
68 °F

Sunny.


Feels Like: 68 °F
Forecast: 53 / 62 °F
Wind: 17 mph from Southwest

Location: Paderborn / Lippstadt

Current Time: Sep 29, 2016 at 12:11:32 PM

Latest Report: Sep 29, 2016 at 11:20 AM


Visibility: 10 mi

Pressure: 30.04 "Hg

Humidity: 56%

Dew Point: 52 °F

Location of MeschedeLocation

Past Weather in Meschede — Graph

°F

Meschede Temperature Yesterday

Maximum temperature yesterday: 68 °F (at 4:20 PM)
Minimum temperature yesterday: 55 °F (at 5:20 AM)
Average temperature yesterday: 63 °F

High & Low Weather Summary for the Past Weeks

 TemperatureHumidityPressure
High86 °F (Sep 14, 12:50 PM)94% (Sep 17, 3:20 PM)30.33 "Hg (Sep 17, 3:20 PM)
Low43 °F (Sep 21, 5:50 AM)28% (Sep 25, 2:50 PM)29.83 "Hg (Sep 15, 4:20 PM)
Average62 °F64%30.11 "Hg
* Reported Sep 14 10:20 AM — Sep 29 10:50 AM, Meschede, Weather by CustomWeather, © 2016

Note: Actual official high and low records may vary slightly from our data, if they occured in-between our weather recording intervals... More about our weather records

Advertising

Meschede Weather History for the Previous 24 Hours

Scroll right to see more
 ConditionsComfort  
Time TempWeatherWind HumidityBarometerVisibility
10:50 AM
Thu, Sep 29
66 °FSunny.15 mph60%30.07 "Hg10 mi
10:20 AM66 °FSunny.14 mph64%30.07 "Hg10 mi
9:50 AM64 °FSunny.13 mph64%30.07 "Hg10 mi
9:20 AM64 °FSunny.13 mph64%30.07 "Hg10 mi
8:50 AM63 °FSunny.10 mph68%30.07 "Hg10 mi
8:20 AM61 °FSunny.14 mph72%30.09 "Hg10 mi
7:50 AM63 °FSunny.16 mph64%30.09 "Hg10 mi
7:20 AM61 °FClear.13 mph68%30.09 "Hg10 mi
6:50 AM63 °FClear.14 mph64%30.09 "Hg10 mi
6:20 AM63 °FClear.13 mph64%30.12 "Hg10 mi
5:50 AM63 °FPassing clouds.10 mph64%30.12 "HgN/A
5:20 AM63 °FPassing clouds.10 mph68%30.12 "HgN/A
4:50 AM64 °FPassing clouds.15 mph64%30.12 "HgN/A
4:20 AM66 °FPassing clouds.15 mph56%30.15 "HgN/A
3:50 AM66 °FPassing clouds.14 mph56%30.15 "HgN/A
3:20 AM64 °FPassing clouds.13 mph64%30.15 "HgN/A
2:50 AM66 °FPartly cloudy.13 mph60%30.18 "HgN/A
2:20 AM64 °FPartly cloudy.14 mph64%30.18 "HgN/A
1:50 AM66 °FPartly cloudy.14 mph60%30.18 "HgN/A
1:20 AM64 °FPartly cloudy.13 mph64%30.18 "HgN/A
12:50 AM64 °FPassing clouds.14 mph64%30.21 "HgN/A
12:20 AM64 °FPassing clouds.13 mph64%30.21 "HgN/A
11:50 PM
Wed, Sep 28
64 °FClear.12 mph60%30.21 "Hg10 mi
11:20 PM64 °FPassing clouds.10 mph60%30.21 "HgN/A
10:50 PM64 °FClear.13 mph60%30.21 "Hg10 mi
10:20 PM64 °FClear.12 mph60%30.21 "Hg10 mi
9:50 PM64 °FClear.12 mph60%30.21 "Hg10 mi
9:20 PM64 °FClear.12 mph60%30.21 "Hg10 mi
8:50 PM64 °FClear.13 mph60%30.21 "Hg10 mi
8:20 PM64 °FClear.13 mph60%30.21 "Hg10 mi
7:50 PM64 °FClear.12 mph60%30.21 "Hg10 mi
7:20 PM66 °FClear.9 mph56%30.21 "Hg10 mi
6:50 PM66 °FSunny.9 mph56%30.21 "Hg10 mi
6:20 PM66 °FSunny.12 mph56%30.21 "Hg10 mi
5:50 PM68 °FSunny.15 mph53%30.21 "Hg10 mi
5:20 PM68 °FSunny.15 mph53%30.21 "Hg10 mi
4:50 PM68 °FPassing clouds.14 mph53%30.21 "HgN/A
4:20 PM68 °FSunny.15 mph53%30.21 "Hg10 mi
3:50 PM66 °FPassing clouds.13 mph56%30.21 "HgN/A
3:20 PM66 °FPassing clouds.15 mph56%30.24 "HgN/A
2:50 PM66 °FPassing clouds.16 mph60%30.24 "HgN/A
2:20 PM66 °FScattered clouds.13 mph64%30.24 "HgN/A
1:50 PM64 °FPartly sunny.15 mph68%30.24 "HgN/A
1:20 PM63 °FPartly sunny.13 mph73%30.24 "HgN/A
12:50 PM63 °FPartly sunny.12 mph73%30.24 "HgN/A
12:20 PM63 °FPartly sunny.15 mph73%30.24 "HgN/A
Weather by CustomWeather, © 2016

See weather overviewHow to use our weather pages